TimeHAST,TemperatureF,Dew PointF,Humidity,Sea Level PressureIn,VisibilityMPH,Wind Direction,Wind SpeedMPH,Gust SpeedMPH,PrecipitationIn,Events,Conditions,WindDirDegrees,DateUTC
12:01 AM,48.0,46.0,93,30.01,5.0,ESE,12.7,28.8,0.33,Rain,Rain,110,2013-12-06 10:01:00
1:01 AM,48.0,46.9,96,30.01,5.0,Variable,6.9,16.1,0.36,Rain,Heavy Rain,0,2013-12-06 11:01:00
1:09 AM,48.2,46.4,93,29.73,4.0,East,11.5,20.7,0.06,Rain,Heavy Rain,100,2013-12-06 11:09:00
2:01 AM,50.0,48.9,96,30.01,7.0,ESE,15.0,33.4,0.30,Rain,Rain,120,2013-12-06 12:01:00
3:01 AM,50.0,48.0,93,30.06,10.0,ESE,15.0,24.2,0.02,Rain,Light Rain,110,2013-12-06 13:01:00
4:01 AM,48.0,46.0,93,30.06,7.0,SE,10.4,17.3,0.00,,Overcast,140,2013-12-06 14:01:00
4:13 AM,48.2,46.4,93,29.79,7.0,ESE,11.5,17.3,N/A,,Overcast,120,2013-12-06 14:13:00
5:01 AM,46.9,46.0,97,30.07,5.0,ESE,18.4,24.2,N/A,,Overcast,120,2013-12-06 15:01:00
6:01 AM,46.9,46.0,97,30.07,8.0,SE,18.4,28.8,0.00,Rain,Light Rain,130,2013-12-06 16:01:00
7:01 AM,46.0,45.0,96,30.08,6.0,East,17.3,23.0,0.00,Rain,Light Rain,100,2013-12-06 17:01:00
8:01 AM,46.0,45.0,96,30.09,4.0,East,16.1,27.6,0.00,Rain,Light Rain,90,2013-12-06 18:01:00
9:01 AM,45.0,44.1,97,30.11,4.0,East,17.3,21.9,0.01,Rain,Light Rain,80,2013-12-06 19:01:00
9:15 AM,44.6,44.6,100,29.82,2.0,East,16.1,26.5,0.01,Rain,Light Rain,80,2013-12-06 19:15:00
9:33 AM,44.6,44.6,100,29.82,3.0,ENE,13.8,25.3,0.02,Rain,Light Rain,70,2013-12-06 19:33:00
10:01 AM,46.0,45.0,96,30.11,3.0,East,19.6,27.6,0.02,Rain,Light Rain,80,2013-12-06 20:01:00
10:09 AM,46.4,44.6,93,29.83,2.0,East,18.4,28.8,0.00,Rain,Light Rain,80,2013-12-06 20:09:00
10:44 AM,46.4,44.6,93,29.83,1.8,East,17.3,26.5,0.01,Rain,Light Rain,80,2013-12-06 20:44:00
10:51 AM,46.4,44.6,93,29.83,2.5,East,15.0,24.2,0.01,Rain,Light Rain,80,2013-12-06 20:51:00
10:53 AM,46.4,44.6,93,29.83,3.0,ENE,16.1,24.2,0.01,Rain,Light Rain,70,2013-12-06 20:53:00
11:01 AM,46.0,45.0,96,30.11,4.0,ENE,18.4,25.3,0.01,Rain,Light Rain,70,2013-12-06 21:01:00
12:01 PM,46.9,45.0,93,30.11,5.0,ENE,19.6,28.8,0.00,Rain,Light Rain,70,2013-12-06 22:01:00
1:01 PM,48.0,46.0,93,30.10,7.0,East,24.2,39.1,0.00,,Overcast,80,2013-12-06 23:01:00
1:18 PM,48.2,44.6,87,29.81,6.0,East,26.5,36.8,N/A,,Overcast,80,2013-12-06 23:18:00
2:01 PM,46.9,44.1,90,30.09,4.0,East,24.2,34.5,0.00,,Overcast,80,2013-12-07 00:01:00
2:17 PM,46.4,44.6,93,29.80,2.5,East,31.1,34.5,0.00,Rain,Light Rain,80,2013-12-07 00:17:00
2:30 PM,46.4,44.6,93,29.81,1.5,East,26.5,35.7,0.01,Rain,Light Rain,80,2013-12-07 00:30:00
3:01 PM,46.0,44.1,93,30.08,1.5,ENE,23.0,36.8,0.03,Rain,Light Rain,70,2013-12-07 01:01:00
4:01 PM,45.0,44.1,97,30.07,1.2,ENE,23.0,33.4,0.05,Rain,Light Rain,70,2013-12-07 02:01:00
4:56 PM,44.6,44.6,100,29.79,2.5,ENE,28.8,35.7,0.09,Rain,Rain,70,2013-12-07 02:56:00
5:01 PM,45.0,44.1,97,30.07,2.5,ENE,24.2,35.7,0.10,Rain,Rain,70,2013-12-07 03:01:00
5:19 PM,44.6,44.6,100,29.79,4.0,ENE,27.6,35.7,0.02,Rain,Light Rain,70,2013-12-07 03:19:00
6:01 PM,45.0,44.1,97,30.08,3.0,ENE,26.5,35.7,0.07,Rain,Rain,70,2013-12-07 04:01:00
6:20 PM,44.6,44.6,100,29.80,2.5,ENE,23.0,36.8,0.02,Rain,Light Rain,70,2013-12-07 04:20:00
7:01 PM,45.0,44.1,97,30.09,2.0,ENE,24.2,31.1,0.05,Rain,Light Rain,70,2013-12-07 05:01:00
8:01 PM,45.0,44.1,97,30.11,2.5,ENE,20.7,33.4,0.04,Rain,Light Rain,70,2013-12-07 06:01:00
8:35 PM,44.6,44.6,100,29.84,3.0,East,18.4,31.1,0.04,Rain,Light Rain,80,2013-12-07 06:35:00
9:01 PM,45.0,44.1,97,30.12,3.0,East,20.7,31.1,0.05,Rain,Light Rain,80,2013-12-07 07:01:00
10:01 PM,45.0,44.1,97,30.14,4.0,ENE,23.0,32.2,0.08,Rain,Rain,70,2013-12-07 08:01:00
10:13 PM,44.6,44.6,100,29.86,4.0,East,16.1,34.5,0.01,Rain,Light Rain,80,2013-12-07 08:13:00
10:49 PM,44.6,44.6,100,29.86,5.0,East,15.0,24.2,0.05,Rain,Rain,80,2013-12-07 08:49:00
11:01 PM,45.0,44.1,97,30.15,5.0,East,17.3,20.7,0.07,Rain,Light Rain,80,2013-12-07 09:01:00
11:31 PM,44.6,44.6,100,29.88,5.0,ENE,17.3,24.2,0.05,Rain,Rain,70,2013-12-07 09:31:00
11:45 PM,44.6,44.6,100,29.88,5.0,East,16.1,24.2,0.08,Rain,Rain,80,2013-12-07 09:45:00